Location: Unspecified
(0.0000°N, 0.0000°E)
Time: 17:21:07
(UTC+02:00)

SeaSat 1 - Visible Passes

Search period start: 17 August 2017 00:00
Search period end: 27 August 2017 00:00
Orbit: 746 x 747 km, 108.0° (Epoch: 17 August)

Date Brightness Start Highest point End Pass type
(mag) Time Alt. Az. Time Alt. Az. Time Alt. Az.
17 Aug 5.5 21:49:01 10° NW 21:51:42 15° WNW 21:54:25 10° WSW visible
18 Aug 3.2 21:05:04 10° N 21:09:51 54° WNW 21:14:39 10° SW visible
19 Aug 2.9 20:23:23 10° NE 20:27:58 40° ESE 20:32:34 10° S visible
19 Aug 5.6 22:03:02 10° NW 22:05:13 13° WNW 22:07:23 10° W visible
20 Aug 3.5 21:18:40 10° N 21:23:22 47° WNW 21:28:05 10° SW visible
21 Aug 2.7 20:36:47 10° NE 20:41:29 46° ESE 20:46:10 10° S visible
21 Aug 5.6 22:17:20 10° NW 22:18:43 11° WNW 22:20:06 10° W visible
22 Aug 3.7 21:32:17 10° N 21:36:53 41° WNW 21:41:30 10° SW visible
23 Aug 2.5 20:50:13 10° NE 20:55:00 53° ESE 20:59:47 10° S visible
24 Aug 3.9 21:45:55 10° N 21:50:23 36° WNW 21:54:53 10° SW visible
25 Aug 2.4 21:03:40 10° NNE 21:08:31 60° ESE 21:13:22 10° SSW visible
26 Aug 3.9 20:23:36 10° ENE 20:26:39 17° ESE 20:29:43 10° SSE visible
26 Aug 4.1 21:59:35 10° N 22:03:54 32° WNW 22:08:15 10° SW visible
